[[{"header":{"parameterUnit":"m.s-1","parameterCategory":2,"la1":30.2991,"la2":30.254,"lo1":-89.0895,"lo2":-89.0444,"dy":0.0017,"dx":0.0017,"nx":28,"ny":28,"refTime":"2023-11-02T09:00:00:Z","depth":"0","parameterNumber":2,"parameterNumberName":"U-component_of_CURRENTS"},"data":[0,0,0,0,0,0,0,0,0,0,0,0,0,0,0,0,0,0,0,0,0,0,0,0,0,0,0,0,0,0,0,0,0,0,0,0,0,0,0,0,0,0,0,0,0,0,0,0,0,0,0,0,0,0,0,0,0,0,0.1933,0.1933,0,0.1958,0.1958,0.1958,0.1955,0.1955,0.1955,0.1955,0.1951,0.1951,0.1952,0,0,0,0,0,0,0,0,0,0,0,0,0,0.1881,0.1882,0.1933,0.1933,0.1934,0.1958,0.1958,0.1958,0.1955,0.1955,0.1955,0.1955,0.1951,0.1951,0.1952,0,0,0,0,0,0,0,0,0,0,0,0,0,0.1902,0.1882,0.1933,0.1937,0.1938,0.1958,0.1958,0.1958,0.1955,0.1955,0.1955,0.1955,0.1951,0.1951,0.1952,0.1958,0,0,0.1952,0.1952,0,0,0,0,0,0,0,0,0.1901,0.1904,0.1936,0.1937,0.1938,0.1955,0.1939,0.1958,0.1956,0.1946,0.1955,0.1954,0.1952,0.1952,0.1954,0.1958,0.1958,0.1952,0.1952,0.1952,0.1952,0,0,0,0,0,0,0,0.19,0.1903,0.194,0.1936,0.1938,0.1937,0.194,0.1942,0.1948,0.1947,0.1948,0.1954,0.1952,0.1954,0.1954,0.1958,0.1952,0.1952,0.1952,0.1952,0.1997,0.1998,0,0,0,0,0,0,0.1902,0.1902,0.194,0.1941,0.1921,0.1939,0.1941,0.1948,0.1949,0.1949,0.1954,0.1954,0.1954,0.1954,0.1954,0.1986,0.1952,0.1952,0.1952,0.1996,0.1997,0.1998,0,0,0,0,0,0,0.19,0.1905,0.1939,0.1924,0.1928,0.194,0.1947,0.1949,0.1955,0.1955,0.1954,0.196,0.1954,0.1954,0.1965,0.1985,0.1952,0.1952,0.1994,0.1996,0.1997,0.2034,0,0,0,0,0,0,0.1899,0.1904,0.1909,0.1924,0.1929,0.1957,0.1948,0.1949,0.196,0.196,0.1959,0.1958,0.1954,0.1965,0.1965,0.1984,0.1953,0.1993,0.1995,0.1997,0.2032,0.2037,0.2042,0,0,0,0,0,0.1897,0.1905,0.1909,0.1913,0.1935,0.1958,0.1961,0.1966,0.1961,0.1969,0.1969,0.1959,0.1978,0.1966,0.1966,0.1986,0.1992,0.1994,0.1997,0.203,0.2036,0.2041,0,0,0,0,0,0,0.1881,0.1906,0.191,0.1924,0.1943,0.1959,0.1968,0.197,0.1977,0.1976,0.1969,0.1969,0.1988,0.1982,0.1969,0.2006,0.1985,0.1988,0.201,0.2016,0.2021,0.2022,0.1953,0,0,0,0,0,0.1881,0.1896,0.1918,0.193,0.1942,0.1955,0.1964,0.1971,0.198,0.1983,0.1982,0.1987,0.1998,0.2002,0.2009,0.2026,0.2033,0.2041,0.2046,0.205,0.2052,0.2081,0.2089,0.2006,0.2006,0.2006,0,0,0.1877,0.1894,0.1901,0.1928,0.1943,0.1963,0.1959,0.1979,0.1995,0.1981,0.1998,0.2002,0.2007,0.2029,0.2037,0.2026,0.208,0.2053,0.2056,0.2056,0.2084,0.2092,0.21,0.2008,0.2007,0.2007,0,0,0.188,0.1894,0.191,0.193,0.1959,0.1971,0.1979,0.1999,0.2008,0.2026,0.2025,0.2043,0.2051,0.2065,0.2071,0.2107,0.2105,0.211,0.2136,0.2164,0.2171,0.2177,0.2208,0.2216,0.2113,0.2113,0.2113,0,0.1873,0.1897,0.1917,0.1941,0.1959,0.1976,0.1997,0.2012,0.2032,0.2045,0.2036,0.207,0.2071,0.2107,0.212,0.2119,0.2133,0.2111,0.2171,0.2177,0.2182,0.2212,0.2221,0.2115,0.2115,0.2114,0.2114,0,0.1892,0.1912,0.1925,0.1961,0.1983,0.2005,0.2033,0.2053,0.2062,0.2076,0.2111,0.2119,0.2141,0.2148,0.2143,0.2189,0.2187,0.2173,0.2154,0.2193,0.2222,0.223,0.2118,0.2117,0.2117,0.2116,0,0,0.1865,0.1926,0.1929,0.195,0.1997,0.2014,0.2051,0.2088,0.2112,0.2132,0.2164,0.2189,0.2196,0.2204,0.2209,0.2231,0.2285,0.2219,0.222,0.2247,0.2355,0.2387,0.24,0.2282,0.2283,0.2284,0.2363,0,0.1872,0.1918,0.1947,0.1984,0.201,0.2044,0.2078,0.2114,0.2141,0.2176,0.2199,0.223,0.2218,0.2235,0.2258,0.2282,0.2308,0.2266,0.2315,0.2317,0.2339,0.2411,0.239,0.2461,0.2371,0.2372,0.2373,0,0.1875,0.1909,0.1949,0.2004,0.2018,0.2042,0.21,0.2131,0.2189,0.2215,0.2254,0.2272,0.2323,0.2297,0.2364,0.2338,0.235,0.2361,0.2364,0.2386,0.2365,0.2406,0.248,0.2452,0.2387,0.2385,0.2385,0,0.1845,0.1903,0.1935,0.1954,0.2021,0.2044,0.2078,0.2139,0.2174,0.224,0.2279,0.2331,0.2371,0.2395,0.2431,0.2401,0.2499,0.2459,0.2499,0.2501,0.2489,0.2488,0.2539,0.2499,0.2499,0.2499,0.2499,0,0.1837,0.1857,0.1923,0.1938,0.1973,0.2028,0.2068,0.2114,0.2188,0.2233,0.2294,0.2354,0.2397,0.2458,0.2463,0.2531,0.2533,0.2526,0.2533,0.2503,0.2503,0.2481,0.2459,0.2502,0.2501,0.2501,0.25,0,0.1791,0.1838,0.187,0.1939,0.1958,0.1978,0.2052,0.2089,0.2171,0.2236,0.2264,0.2388,0.2486,0.2531,0.2592,0.2593,0.2592,0.2648,0.2617,0.262,0.2621,0.2602,0.2557,0.2462,0.2708,0.2709,0.2711,0,0.1771,0.1787,0.1849,0.1868,0.1895,0.1937,0.1973,0.2061,0.2112,0.2257,0.2296,0.2429,0.2518,0.2654,0.2705,0.2758,0.2649,0.2742,0.2678,0.2647,0.263,0.2502,0.2414,0.2677,0.2678,0.2679,0.2679,0,0.1725,0.1748,0.1777,0.1817,0.1851,0.1889,0.1953,0.1986,0.2097,0.2181,0.2314,0.2402,0.2588,0.2677,0.2774,0.279,0.2656,0.2758,0.273,0.263,0.2488,0.2392,0.2599,0.2686,0.2685,0.2684,0.2684,0.2684,0.168,0.1685,0.1727,0.1759,0.1795,0.183,0.1839,0.1929,0.2002,0.2113,0.2258,0.2393,0.2605,0.2773,0.2771,0.2813,0.2717,0.2753,0.274,0.2618,0.2505,0.2737,0.2827,0.2828,0.2828,0.2828,0.2828,0,0.1617,0.164,0.1669,0.1698,0.1709,0.176,0.1818,0.1827,0.1883,0.2057,0.2174,0.2436,0.2579,0.272,0.288,0.2819,0.264,0.2744,0.2556,0.2468,0.2706,0.2685,0.2742,0.2742,0.2742,0.2742,0.2742,0.2742,0.1584,0.1588,0.161,0.1604,0.1626,0.1614,0.1629,0.1669,0.178,0.1947,0.2123,0.229,0.2633,0.2929,0.2961,0.2871,0.2605,0.254,0.2446,0.2649,0.2647,0.2645,0.262,0.2663,0.2663,0.2112,0.2108,0.2106]},{"header":{"parameterUnit":"m.s-1","parameterCategory":2,"la1":30.2991,"la2":30.254,"lo1":-89.0895,"lo2":-89.0444,"dy":0.0017,"dx":0.0017,"nx":28,"ny":28,"refTime":"2023-11-02T09:00:00:Z","depth":"0","parameterNumber":3,"parameterNumberName":"V-component_of_CURRENTS"},"data":[0,0,0,0,0,0,0,0,0,0,0,0,0,0,0,0,0,0,0,0,0,0,0,0,0,0,0,0,0,0,0,0,0,0,0,0,0,0,0,0,0,0,0,0,0,0,0,0,0,0,0,0,0,0,0,0,0,0,-0.0359,-0.036,0,-0.0408,-0.0408,-0.0409,-0.0442,-0.0442,-0.0442,-0.0442,-0.0515,-0.0517,-0.0518,0,0,0,0,0,0,0,0,0,0,0,0,0,-0.0334,-0.0334,-0.0359,-0.036,-0.036,-0.0408,-0.0408,-0.0409,-0.0442,-0.0442,-0.0442,-0.0442,-0.0514,-0.0516,-0.0518,0,0,0,0,0,0,0,0,0,0,0,0,0,-0.036,-0.0334,-0.0359,-0.0382,-0.0385,-0.0407,-0.0408,-0.0409,-0.0442,-0.0442,-0.0442,-0.0442,-0.0514,-0.0516,-0.0519,-0.0529,0,0,-0.0527,-0.0528,0,0,0,0,0,0,0,0,-0.0359,-0.0361,-0.0378,-0.038,-0.0383,-0.0419,-0.0426,-0.045,-0.0442,-0.042,-0.0442,-0.0443,-0.0484,-0.0489,-0.0498,-0.0532,-0.0535,-0.0527,-0.0529,-0.053,-0.053,0,0,0,0,0,0,0,-0.0357,-0.036,-0.0379,-0.0379,-0.0382,-0.0403,-0.0407,-0.0431,-0.0451,-0.0422,-0.0425,-0.0429,-0.0486,-0.0496,-0.05,-0.0537,-0.0527,-0.0529,-0.0531,-0.0532,-0.0583,-0.0583,0,0,0,0,0,0,-0.0348,-0.0358,-0.0377,-0.038,-0.0371,-0.0403,-0.0408,-0.0407,-0.045,-0.0457,-0.0429,-0.0431,-0.0491,-0.0497,-0.0503,-0.0512,-0.053,-0.0532,-0.0534,-0.0583,-0.0583,-0.0583,0,0,0,0,0,0,-0.0347,-0.0349,-0.0375,-0.037,-0.0375,-0.0403,-0.0403,-0.0408,-0.0417,-0.0455,-0.0462,-0.0432,-0.0491,-0.0499,-0.0523,-0.0515,-0.0533,-0.0536,-0.0584,-0.0583,-0.0583,-0.0534,0,0,0,0,0,0,-0.0346,-0.0348,-0.0344,-0.0369,-0.0375,-0.0384,-0.0403,-0.0409,-0.0419,-0.0422,-0.046,-0.0467,-0.0492,-0.0519,-0.0526,-0.0519,-0.0538,-0.0584,-0.0583,-0.0583,-0.0536,-0.0532,-0.0529,0,0,0,0,0,-0.0345,-0.0334,-0.0343,-0.0345,-0.0368,-0.0384,-0.0389,-0.0411,-0.0419,-0.042,-0.0448,-0.0466,-0.0521,-0.0521,-0.0529,-0.0523,-0.0584,-0.0584,-0.0583,-0.0538,-0.0533,-0.0529,0,0,0,0,0,0,-0.032,-0.0338,-0.0347,-0.0343,-0.0361,-0.0389,-0.039,-0.0407,-0.0429,-0.043,-0.0467,-0.0476,-0.0493,-0.0515,-0.0514,-0.0537,-0.0554,-0.0555,-0.0517,-0.0513,-0.051,-0.0491,-0.054,0,0,0,0,0,-0.0313,-0.031,-0.0333,-0.033,-0.0335,-0.0362,-0.0371,-0.0386,-0.0409,-0.0419,-0.0446,-0.0474,-0.0497,-0.0511,-0.0535,-0.0549,-0.0569,-0.0549,-0.0546,-0.0542,-0.0533,-0.0558,-0.0556,-0.0581,-0.0581,-0.0581,0,0,-0.0302,-0.0312,-0.0311,-0.0325,-0.0339,-0.0339,-0.0368,-0.0376,-0.0377,-0.0423,-0.0432,-0.0463,-0.0499,-0.0514,-0.0523,-0.0531,-0.0547,-0.0542,-0.0539,-0.0531,-0.0557,-0.0555,-0.0553,-0.0581,-0.0581,-0.0581,0,0,-0.0278,-0.0288,-0.0277,-0.0288,-0.0305,-0.0321,-0.0321,-0.0346,-0.0358,-0.0374,-0.0405,-0.043,-0.0467,-0.0489,-0.0506,-0.0497,-0.0528,-0.0506,-0.0472,-0.0497,-0.0495,-0.0494,-0.0518,-0.0519,-0.0503,-0.0503,-0.0503,0,-0.0265,-0.0254,-0.0277,-0.027,-0.0271,-0.0308,-0.0295,-0.0313,-0.0344,-0.0348,-0.0369,-0.0419,-0.0453,-0.0469,-0.0468,-0.0488,-0.0508,-0.0485,-0.0492,-0.0491,-0.049,-0.0515,-0.0517,-0.05,-0.0501,-0.0501,-0.0501,0,-0.0233,-0.0226,-0.022,-0.0221,-0.0226,-0.0223,-0.0247,-0.0255,-0.0275,-0.0295,-0.0317,-0.0367,-0.0393,-0.0412,-0.0439,-0.0448,-0.0466,-0.0485,-0.05,-0.0484,-0.0513,-0.0515,-0.0497,-0.0498,-0.0499,-0.0499,0,0,-0.0197,-0.0196,-0.0193,-0.018,-0.0198,-0.0194,-0.0196,-0.0204,-0.0198,-0.024,-0.0236,-0.029,-0.0318,-0.0338,-0.0379,-0.0406,-0.0425,-0.0439,-0.0441,-0.0457,-0.0479,-0.0489,-0.0493,-0.0445,-0.0446,-0.0446,-0.0502,0,-0.0163,-0.0134,-0.0145,-0.0114,-0.0098,-0.0126,-0.0122,-0.0136,-0.0158,-0.0166,-0.022,-0.0237,-0.029,-0.0303,-0.0337,-0.0401,-0.0429,-0.0408,-0.0496,-0.0499,-0.0505,-0.0495,-0.05,-0.055,-0.0505,-0.0505,-0.0505,0,-0.0122,-0.0108,-0.0071,-0.0053,-0.0047,-0.0038,-0.003,-0.0032,-0.006,-0.0079,-0.0111,-0.0152,-0.0197,-0.0245,-0.034,-0.0324,-0.0393,-0.0448,-0.0452,-0.0477,-0.0513,-0.0559,-0.0557,-0.0723,-0.051,-0.051,-0.0509,0,-0.0074,-0.0051,-0.0015,-0.0011,-0.0002,0.0012,0.0012,-0.0004,0.0011,-0.0024,-0.0019,-0.0086,-0.011,-0.0204,-0.0316,-0.0329,-0.0421,-0.0454,-0.0529,-0.0531,-0.056,-0.0563,-0.0722,-0.0519,-0.0519,-0.0519,-0.0519,0,-0.0029,0.0001,0.001,0.003,0.0075,0.0061,0.0097,0.0085,0.0084,0.0114,0.0031,0.0039,-0.01,-0.0168,-0.0286,-0.0408,-0.0399,-0.0517,-0.0543,-0.0543,-0.0545,-0.071,-0.0809,-0.0521,-0.052,-0.052,-0.052,0,0.002,0.0025,0.0069,0.0089,0.01,0.013,0.0159,0.0185,0.0167,0.0204,0.0201,0.0141,0.0049,-0.0094,-0.0243,-0.0356,-0.0585,-0.0529,-0.0519,-0.0542,-0.0767,-0.0861,-0.1052,-0.1136,-0.0622,-0.0622,-0.0623,0,0.0049,0.0077,0.0117,0.0149,0.016,0.0196,0.0225,0.0225,0.0263,0.0274,0.0307,0.0235,0.0204,-0.0023,-0.0241,-0.0445,-0.0606,-0.0588,-0.0615,-0.0776,-0.0901,-0.0979,-0.1041,-0.0642,-0.0642,-0.0643,-0.0643,0,0.0106,0.0118,0.0154,0.0213,0.0255,0.0303,0.0348,0.0395,0.041,0.0443,0.0486,0.0466,0.0249,0.005,-0.0238,-0.0397,-0.0725,-0.0603,-0.0778,-0.0933,-0.1022,-0.1114,-0.0612,-0.0647,-0.0646,-0.0646,-0.0646,-0.0646,0.0151,0.0184,0.0231,0.0289,0.034,0.041,0.0459,0.0523,0.06,0.067,0.0636,0.0634,0.0318,-0.0073,-0.0315,-0.0762,-0.077,-0.089,-0.0992,-0.1056,-0.1141,-0.0641,-0.0699,-0.0699,-0.0699,-0.0699,-0.0699,0,0.0208,0.0244,0.0304,0.0374,0.0438,0.0451,0.0547,0.0604,0.0709,0.0779,0.0815,0.0659,0.026,-0.0154,-0.0746,-0.1076,-0.122,-0.127,-0.1398,-0.1442,-0.1003,-0.1007,-0.1123,-0.1123,-0.1123,-0.1123,-0.1123,-0.1123,0.0243,0.0309,0.0336,0.045,0.0499,0.059,0.0647,0.0742,0.0813,0.0887,0.0894,0.0861,0.0533,-0.0529,-0.1305,-0.149,-0.1745,-0.1799,-0.1925,-0.1642,-0.1615,-0.1589,-0.1616,-0.1858,-0.1859,-0.2322,-0.2326,-0.233]}],[{"header":{"parameterUnit":"m.s-1","parameterCategory":2,"la1":30.2991,"la2":30.254,"lo1":-89.0895,"lo2":-89.0444,"dy":0.0017,"dx":0.0017,"nx":28,"ny":28,"refTime":"2023-11-02T09:00:00:Z","depth":"2","parameterNumber":2,"parameterNumberName":"U-component_of_CURRENTS"},"data":[0,0,0,0,0,0,0,0,0,0,0,0,0,0,0,0,0,0,0,0,0,0,0,0,0,0,0,0,0,0,0,0,0,0,0,0,0,0,0,0,0,0,0,0,0,0,0,0,0,0,0,0,0,0,0,0,0,0,0.1929,0.1929,0,0.1955,0.1955,0.1955,0.1954,0.1954,0.1953,0.1953,0.1954,0.1954,0.1954,0,0,0,0,0,0,0,0,0,0,0,0,0,0.1878,0.1878,0.1929,0.1929,0.193,0.1954,0.1955,0.1955,0.1954,0.1954,0.1953,0.1953,0.1954,0.1954,0.1954,0,0,0,0,0,0,0,0,0,0,0,0,0,0.1899,0.1879,0.1929,0.1934,0.1935,0.1954,0.1955,0.1955,0.1954,0.1954,0.1953,0.1953,0.1954,0.1954,0.1954,0.1961,0,0,0.1955,0.1955,0,0,0,0,0,0,0,0,0.1898,0.1901,0.1933,0.1934,0.1935,0.1952,0.1937,0.1956,0.1954,0.1944,0.1953,0.1953,0.1952,0.1953,0.1956,0.1961,0.1961,0.1955,0.1955,0.1955,0.1955,0,0,0,0,0,0,0,0.1896,0.19,0.1937,0.1933,0.1935,0.1935,0.1937,0.194,0.1947,0.1945,0.1946,0.1952,0.1952,0.1955,0.1956,0.1961,0.1955,0.1955,0.1955,0.1955,0.2004,0.2005,0,0,0,0,0,0,0.1898,0.1898,0.1936,0.1938,0.1918,0.1936,0.1939,0.1945,0.1948,0.1949,0.1952,0.1952,0.1955,0.1955,0.1956,0.199,0.1955,0.1955,0.1955,0.2003,0.2004,0.2005,0,0,0,0,0,0,0.1897,0.1901,0.1935,0.192,0.1925,0.1937,0.1945,0.1946,0.1953,0.1954,0.1954,0.1959,0.1955,0.1955,0.1968,0.1989,0.1955,0.1956,0.2001,0.2003,0.2005,0.2042,0,0,0,0,0,0,0.1895,0.19,0.1906,0.192,0.1926,0.1954,0.1945,0.1947,0.1958,0.1958,0.196,0.1959,0.1955,0.1968,0.1968,0.1989,0.1956,0.2,0.2002,0.2004,0.2039,0.2045,0.2049,0,0,0,0,0,0.1893,0.1901,0.1906,0.191,0.1932,0.1955,0.1957,0.1963,0.1959,0.1967,0.1969,0.1959,0.1982,0.1969,0.1969,0.199,0.1999,0.2001,0.2004,0.2037,0.2043,0.2049,0,0,0,0,0,0,0.1879,0.1903,0.1907,0.1922,0.1941,0.1955,0.1965,0.1968,0.1976,0.1976,0.197,0.197,0.1991,0.1986,0.1972,0.2012,0.199,0.1993,0.2015,0.2021,0.2026,0.2027,0.1956,0,0,0,0,0,0.1879,0.1894,0.1916,0.1928,0.194,0.1953,0.1962,0.1969,0.1979,0.1982,0.1983,0.1989,0.2002,0.2007,0.2015,0.2033,0.2039,0.2049,0.2054,0.2058,0.206,0.2087,0.2095,0.2014,0.2014,0.2013,0,0,0.1876,0.1893,0.19,0.1927,0.1941,0.1961,0.1958,0.1978,0.1994,0.1981,0.2,0.2005,0.2011,0.2034,0.2044,0.2032,0.2087,0.2061,0.2065,0.2064,0.2091,0.2099,0.2106,0.2015,0.2015,0.2015,0,0,0.1881,0.1895,0.191,0.193,0.1959,0.197,0.1978,0.1999,0.2008,0.2027,0.2027,0.2046,0.2057,0.2071,0.2078,0.2116,0.2113,0.212,0.2145,0.2173,0.2179,0.2185,0.2214,0.2222,0.2123,0.2123,0.2123,0,0.1874,0.1898,0.1917,0.1941,0.1959,0.1976,0.1997,0.2012,0.2032,0.2046,0.2038,0.2074,0.2076,0.2114,0.2128,0.2127,0.2141,0.212,0.2179,0.2185,0.219,0.2218,0.2227,0.2125,0.2125,0.2124,0.2124,0,0.1893,0.1914,0.1927,0.1962,0.1983,0.2006,0.2033,0.2053,0.2064,0.2078,0.2115,0.2124,0.2146,0.2155,0.2151,0.2197,0.2195,0.2182,0.2162,0.2201,0.2228,0.2236,0.2128,0.2127,0.2126,0.2126,0,0,0.1869,0.1928,0.1931,0.1952,0.1998,0.2015,0.2052,0.2089,0.2114,0.2134,0.2167,0.2194,0.2201,0.221,0.2216,0.2238,0.2291,0.2227,0.2228,0.2253,0.2358,0.238,0.2391,0.2288,0.2289,0.2291,0.2365,0,0.1876,0.1921,0.1949,0.1986,0.2011,0.2045,0.2079,0.2115,0.2143,0.2178,0.2202,0.2234,0.2223,0.2241,0.2263,0.2288,0.2313,0.2272,0.2318,0.232,0.2332,0.2401,0.2212,0.2265,0.2373,0.2374,0.2375,0,0.1879,0.1912,0.1952,0.2007,0.202,0.2044,0.2103,0.2133,0.2191,0.2217,0.2256,0.2276,0.2326,0.2301,0.2366,0.2343,0.2353,0.2364,0.2367,0.2378,0.2358,0.2242,0.2275,0.2389,0.2388,0.2387,0.2386,0,0.1851,0.1908,0.1939,0.1958,0.2024,0.2048,0.2081,0.2142,0.2177,0.2243,0.2282,0.2333,0.2373,0.2396,0.243,0.2402,0.2496,0.2458,0.2488,0.2489,0.2333,0.2319,0.2496,0.2496,0.2496,0.2496,0.2496,0,0.1843,0.1864,0.1928,0.1944,0.1978,0.2033,0.2073,0.2119,0.2192,0.2237,0.2297,0.2355,0.2398,0.2457,0.2462,0.2522,0.2528,0.2513,0.2519,0.2344,0.2331,0.2432,0.2424,0.2499,0.2498,0.2498,0.2497,0,0.1799,0.1845,0.1877,0.1945,0.1964,0.1985,0.2059,0.2096,0.2176,0.2241,0.2269,0.2389,0.2481,0.2525,0.2582,0.2579,0.2617,0.2626,0.2429,0.2411,0.2579,0.2571,0.267,0.2672,0.2673,0.2674,0.2675,0,0.1779,0.1795,0.1857,0.1876,0.1903,0.1946,0.1982,0.2068,0.2118,0.226,0.2298,0.2425,0.2505,0.263,0.2651,0.2691,0.2681,0.2528,0.2443,0.2606,0.2601,0.2591,0.2582,0.2245,0.2242,0.224,0.2238,0,0.1736,0.1759,0.1787,0.1827,0.1861,0.1899,0.1962,0.1995,0.2104,0.2183,0.2309,0.2389,0.2539,0.2527,0.2602,0.2588,0.251,0.249,0.2707,0.2249,0.2216,0.2208,0.221,0.2219,0.2221,0.2222,0.2223,0.2224,0.1693,0.1698,0.1739,0.1771,0.1807,0.1841,0.185,0.193,0.1998,0.2082,0.2228,0.2288,0.2362,0.2409,0.2369,0.2343,0.2504,0.2368,0.2369,0.2374,0.233,0.2303,0.2314,0.2317,0.2319,0.2321,0.2322,0,0.1631,0.1654,0.1684,0.1712,0.172,0.1773,0.1829,0.1824,0.1865,0.1977,0.2066,0.1984,0.2017,0.207,0.2028,0.2074,0.1991,0.1971,0.1822,0.1847,0.1867,0.1789,0.1634,0.1632,0.1629,0.1627,0,0,0.1598,0.1601,0.1622,0.1614,0.1638,0.1622,0.1637,0.165,0.1708,0.1724,0.1751,0.1922,0.2037,0.1796,0.18,0.1701,0.1744,0.1642,0.2206,0.2056,0.2072,0.2128,0.2044,0,0,0,0,0]},{"header":{"parameterUnit":"m.s-1","parameterCategory":2,"la1":30.2991,"la2":30.254,"lo1":-89.0895,"lo2":-89.0444,"dy":0.0017,"dx":0.0017,"nx":28,"ny":28,"refTime":"2023-11-02T09:00:00:Z","depth":"2","parameterNumber":3,"parameterNumberName":"V-component_of_CURRENTS"},"data":[0,0,0,0,0,0,0,0,0,0,0,0,0,0,0,0,0,0,0,0,0,0,0,0,0,0,0,0,0,0,0,0,0,0,0,0,0,0,0,0,0,0,0,0,0,0,0,0,0,0,0,0,0,0,0,0,0,0,-0.0243,-0.0243,0,-0.0289,-0.0289,-0.029,-0.0324,-0.0324,-0.0325,-0.0325,-0.0395,-0.0396,-0.0398,0,0,0,0,0,0,0,0,0,0,0,0,0,-0.022,-0.022,-0.0243,-0.0243,-0.0244,-0.0289,-0.029,-0.029,-0.0324,-0.0324,-0.0325,-0.0325,-0.0394,-0.0396,-0.0398,0,0,0,0,0,0,0,0,0,0,0,0,0,-0.0245,-0.022,-0.0242,-0.0266,-0.0268,-0.0289,-0.029,-0.029,-0.0324,-0.0324,-0.0325,-0.0325,-0.0393,-0.0396,-0.0398,-0.0405,0,0,-0.0405,-0.0407,0,0,0,0,0,0,0,0,-0.0243,-0.0245,-0.0262,-0.0264,-0.0267,-0.0301,-0.0307,-0.033,-0.0324,-0.0303,-0.0325,-0.0325,-0.0365,-0.037,-0.0378,-0.0408,-0.0411,-0.0406,-0.0407,-0.0408,-0.0409,0,0,0,0,0,0,0,-0.0241,-0.0244,-0.0261,-0.0262,-0.0266,-0.0286,-0.029,-0.0312,-0.0332,-0.0305,-0.0307,-0.0312,-0.0367,-0.0375,-0.038,-0.0412,-0.0406,-0.0408,-0.0409,-0.041,-0.0457,-0.0457,0,0,0,0,0,0,-0.0233,-0.0242,-0.026,-0.0263,-0.0255,-0.0286,-0.029,-0.029,-0.0331,-0.0338,-0.0312,-0.0313,-0.0371,-0.0377,-0.0382,-0.0392,-0.0408,-0.041,-0.0412,-0.0457,-0.0457,-0.0457,0,0,0,0,0,0,-0.0232,-0.0233,-0.0258,-0.0254,-0.0258,-0.0286,-0.0285,-0.0291,-0.0301,-0.0336,-0.0343,-0.0317,-0.0371,-0.0379,-0.0401,-0.0395,-0.0412,-0.0414,-0.0457,-0.0457,-0.0457,-0.0412,0,0,0,0,0,0,-0.0231,-0.0233,-0.0229,-0.0253,-0.0258,-0.0266,-0.0285,-0.0291,-0.0303,-0.0306,-0.0343,-0.0349,-0.0372,-0.0397,-0.0404,-0.0399,-0.0416,-0.0458,-0.0457,-0.0457,-0.0414,-0.041,-0.0407,0,0,0,0,0,-0.023,-0.022,-0.0229,-0.0231,-0.0252,-0.0266,-0.027,-0.0292,-0.0303,-0.0304,-0.033,-0.0348,-0.0399,-0.0399,-0.0407,-0.0402,-0.0458,-0.0457,-0.0457,-0.0415,-0.0411,-0.0407,0,0,0,0,0,0,-0.0208,-0.0223,-0.0233,-0.0229,-0.0245,-0.0271,-0.0273,-0.0289,-0.0311,-0.0313,-0.0348,-0.0357,-0.0374,-0.0394,-0.0393,-0.0414,-0.0431,-0.0432,-0.0396,-0.0393,-0.0389,-0.0373,-0.0418,0,0,0,0,0,-0.0201,-0.0199,-0.0219,-0.0216,-0.0221,-0.0247,-0.0256,-0.027,-0.0292,-0.0302,-0.0329,-0.0355,-0.0377,-0.0389,-0.0412,-0.0424,-0.0444,-0.0426,-0.0422,-0.0419,-0.0411,-0.0437,-0.0435,-0.0455,-0.0455,-0.0455,0,0,-0.0192,-0.02,-0.0199,-0.0212,-0.0226,-0.0225,-0.0253,-0.0261,-0.0262,-0.0306,-0.0316,-0.0346,-0.0378,-0.0392,-0.0401,-0.0408,-0.0425,-0.0419,-0.0416,-0.0409,-0.0436,-0.0434,-0.0432,-0.0455,-0.0455,-0.0455,0,0,-0.0169,-0.0179,-0.0168,-0.0178,-0.0194,-0.0209,-0.0209,-0.0233,-0.0245,-0.0261,-0.0291,-0.0315,-0.0349,-0.037,-0.0385,-0.0377,-0.0407,-0.0385,-0.0355,-0.038,-0.0378,-0.0377,-0.0402,-0.0404,-0.0383,-0.0382,-0.0382,0,-0.0158,-0.0146,-0.0168,-0.0161,-0.0162,-0.0197,-0.0184,-0.0201,-0.0231,-0.0236,-0.0257,-0.0305,-0.0337,-0.035,-0.035,-0.0368,-0.0388,-0.0366,-0.0375,-0.0374,-0.0374,-0.04,-0.0402,-0.038,-0.0381,-0.0381,-0.0381,0,-0.0127,-0.012,-0.0114,-0.0114,-0.0119,-0.0115,-0.0137,-0.0146,-0.0167,-0.0186,-0.0208,-0.0255,-0.0281,-0.0299,-0.0324,-0.0334,-0.0351,-0.0368,-0.0383,-0.0369,-0.0398,-0.0401,-0.0377,-0.0378,-0.0379,-0.0379,0,0,-0.0094,-0.0092,-0.0089,-0.0077,-0.0092,-0.0088,-0.0089,-0.0096,-0.0091,-0.0133,-0.0131,-0.0182,-0.0211,-0.0229,-0.0268,-0.0295,-0.0317,-0.0327,-0.0329,-0.0347,-0.0373,-0.0382,-0.0387,-0.0336,-0.0337,-0.0337,-0.0395,0,-0.0063,-0.0034,-0.0043,-0.0013,0.0003,-0.0023,-0.0019,-0.0031,-0.0054,-0.0063,-0.0115,-0.0133,-0.0183,-0.0197,-0.0231,-0.0293,-0.0322,-0.0299,-0.0387,-0.039,-0.0396,-0.039,-0.0364,-0.0413,-0.0398,-0.0399,-0.0399,0,-0.0025,-0.0011,0.0026,0.0046,0.0051,0.006,0.0068,0.0066,0.0039,0.0019,-0.0013,-0.0054,-0.0098,-0.0144,-0.0239,-0.0222,-0.029,-0.0344,-0.0348,-0.0371,-0.0404,-0.0425,-0.042,-0.0405,-0.0404,-0.0404,-0.0404,0,0.0019,0.0043,0.0077,0.0082,0.0093,0.0105,0.0107,0.0091,0.0106,0.007,0.0073,0.0008,-0.0017,-0.011,-0.0221,-0.023,-0.0326,-0.0354,-0.0427,-0.0429,-0.0431,-0.0432,-0.0419,-0.0419,-0.0419,-0.0419,-0.0419,0,0.0061,0.0089,0.01,0.012,0.0162,0.0151,0.0184,0.0173,0.0172,0.02,0.012,0.0126,-0.001,-0.0079,-0.0194,-0.0314,-0.0307,-0.0417,-0.0442,-0.0416,-0.0415,-0.0426,-0.0426,-0.0421,-0.0421,-0.042,-0.042,0,0.0105,0.0111,0.0154,0.0175,0.0185,0.0214,0.0242,0.0267,0.025,0.0285,0.0281,0.0221,0.0127,-0.0014,-0.0161,-0.0267,-0.0392,-0.0438,-0.0398,-0.0416,-0.0486,-0.0483,-0.0525,-0.0525,-0.0526,-0.0526,-0.0527,0,0.0131,0.0158,0.0198,0.0229,0.024,0.0274,0.0303,0.0304,0.0341,0.035,0.0382,0.0307,0.0273,0.0047,-0.0159,-0.0358,-0.0388,-0.0467,-0.0483,-0.0476,-0.0496,-0.0492,-0.0488,-0.0473,-0.0473,-0.0473,-0.0473,0,0.0184,0.0196,0.0231,0.0288,0.0329,0.0376,0.042,0.0466,0.0481,0.0512,0.0549,0.0525,0.0314,0.0126,-0.0154,-0.0292,-0.0435,-0.0473,-0.0475,-0.0446,-0.0431,-0.045,-0.0447,-0.0473,-0.0473,-0.0473,-0.0473,-0.0473,0.0225,0.0257,0.0302,0.0359,0.0408,0.0478,0.0525,0.0585,0.0658,0.0715,0.0684,0.065,0.0427,0.0081,-0.0164,-0.043,-0.0425,-0.0514,-0.0512,-0.0511,-0.0491,-0.0477,-0.0524,-0.0524,-0.0524,-0.0525,-0.0525,0,0.0279,0.0312,0.037,0.0439,0.0502,0.0515,0.0608,0.0661,0.0756,0.0798,0.0822,0.0635,0.041,0.0144,-0.0243,-0.0471,-0.0493,-0.0544,-0.0515,-0.0514,-0.0513,-0.0492,-0.0526,-0.0526,-0.0527,-0.0527,0,0,0.0312,0.0376,0.0402,0.0512,0.0558,0.0647,0.0702,0.0784,0.0834,0.0884,0.0869,0.0811,0.0494,0.0225,-0.0089,-0.031,-0.0364,-0.0358,-0.0333,-0.0262,-0.0258,-0.0472,-0.0434,0,0,0,0,0]}],[{"header":{"parameterUnit":"m.s-1","parameterCategory":2,"la1":30.2991,"la2":30.254,"lo1":-89.0895,"lo2":-89.0444,"dy":0.0017,"dx":0.0017,"nx":28,"ny":28,"refTime":"2023-11-02T09:00:00:Z","depth":"4","parameterNumber":2,"parameterNumberName":"U-component_of_CURRENTS"},"data":[0,0,0,0,0,0,0,0,0,0,0,0,0,0,0,0,0,0,0,0,0,0,0,0,0,0,0,0,0,0,0,0,0,0,0,0,0,0,0,0,0,0,0,0,0,0,0,0,0,0,0,0,0,0,0,0,0,0,0.1319,0.132,0,0.1373,0.1374,0.1374,0.1419,0.142,0.142,0.1421,0.1475,0.1476,0.1477,0,0,0,0,0,0,0,0,0,0,0,0,0,0.1237,0.1238,0.1319,0.132,0.1321,0.1373,0.1374,0.1374,0.1419,0.142,0.1421,0.1421,0.1475,0.1476,0.1477,0,0,0,0,0,0,0,0,0,0,0,0,0,0.1278,0.1239,0.1319,0.1351,0.1354,0.1373,0.1374,0.1374,0.1419,0.142,0.1421,0.1422,0.1475,0.1476,0.1477,0.1466,0,0,0.1481,0.1482,0,0,0,0,0,0,0,0,0.1276,0.1281,0.1345,0.1349,0.1353,0.1392,0.1365,0.1406,0.1419,0.1392,0.1421,0.1422,0.1448,0.1452,0.1457,0.1469,0.1471,0.1481,0.1482,0.1483,0.1483,0,0,0,0,0,0,0,0.1273,0.1279,0.1339,0.1346,0.135,0.1356,0.1363,0.1373,0.1413,0.1395,0.1399,0.1407,0.145,0.1456,0.1459,0.1472,0.1481,0.1482,0.1483,0.1484,0.1563,0.1565,0,0,0,0,0,0,0.127,0.1276,0.1337,0.1341,0.1318,0.1357,0.1365,0.1377,0.1413,0.142,0.1406,0.1409,0.1453,0.1457,0.1461,0.1529,0.1483,0.1484,0.1485,0.1562,0.1564,0.1565,0,0,0,0,0,0,0.1268,0.1275,0.1335,0.1311,0.1319,0.1358,0.1371,0.1377,0.1413,0.1422,0.1429,0.1438,0.1454,0.1459,0.1496,0.1529,0.1484,0.1486,0.1561,0.1563,0.1564,0.1615,0,0,0,0,0,0,0.1265,0.1274,0.1293,0.1311,0.132,0.1364,0.137,0.1378,0.1415,0.142,0.1451,0.1455,0.1455,0.1494,0.1498,0.153,0.1487,0.1559,0.1561,0.1564,0.1611,0.1618,0.1624,0,0,0,0,0,0.1262,0.128,0.1294,0.1302,0.1342,0.1365,0.1371,0.14,0.1416,0.1435,0.1459,0.1456,0.1513,0.1496,0.15,0.1533,0.1558,0.1561,0.1564,0.1609,0.1617,0.1624,0,0,0,0,0,0,0.1253,0.1287,0.1302,0.133,0.1356,0.1374,0.1399,0.1415,0.1448,0.1463,0.1469,0.1475,0.1521,0.1519,0.1501,0.1564,0.1536,0.154,0.1569,0.1577,0.1583,0.1585,0.1488,0,0,0,0,0,0.1259,0.1287,0.1312,0.1339,0.1354,0.1381,0.14,0.1421,0.1446,0.1463,0.1484,0.1508,0.153,0.1548,0.1564,0.1596,0.1598,0.1621,0.1627,0.1632,0.1637,0.1665,0.1674,0.1575,0.1575,0.1575,0,0,0.1263,0.1287,0.1303,0.134,0.1364,0.1389,0.1396,0.1434,0.1462,0.1462,0.1515,0.1531,0.1543,0.1582,0.1603,0.1589,0.1664,0.1636,0.1641,0.1642,0.1669,0.1679,0.1687,0.1577,0.1577,0.1577,0,0,0.1274,0.1307,0.1331,0.1356,0.1399,0.1414,0.1431,0.1467,0.1495,0.1537,0.1549,0.1586,0.1619,0.1636,0.1646,0.1696,0.1695,0.1708,0.1745,0.1773,0.1781,0.1788,0.1811,0.1819,0.1713,0.1713,0.1713,0,0.1278,0.1313,0.1341,0.1369,0.1395,0.1429,0.1457,0.1485,0.153,0.1556,0.1564,0.163,0.1643,0.1689,0.1711,0.1711,0.1726,0.1714,0.1781,0.1788,0.1795,0.1816,0.1825,0.1716,0.1716,0.1716,0.1715,0,0.1299,0.1337,0.1355,0.1403,0.1432,0.1466,0.1503,0.1543,0.1581,0.1605,0.167,0.1692,0.1732,0.1745,0.1745,0.1804,0.18,0.1784,0.176,0.1808,0.1827,0.1835,0.172,0.1719,0.1718,0.1718,0,0,0.1278,0.1355,0.1364,0.1396,0.1457,0.1479,0.1534,0.1585,0.1628,0.1677,0.1729,0.1776,0.1798,0.1812,0.1825,0.1852,0.1914,0.1846,0.1846,0.1866,0.1983,0.1879,0.1878,0.1916,0.1917,0.1919,0.198,0,0.1289,0.1346,0.1383,0.144,0.1471,0.1523,0.1569,0.1622,0.1671,0.1729,0.1768,0.1822,0.1821,0.1856,0.1884,0.1909,0.1939,0.1899,0.1936,0.1937,0.1836,0.1885,0.1924,0.1986,0.1988,0.1989,0.199,0,0.1291,0.1333,0.1391,0.1468,0.1488,0.1529,0.1614,0.1659,0.1738,0.178,0.1841,0.1874,0.1939,0.1923,0.1994,0.1974,0.1987,0.1996,0.1998,0.1887,0.1848,0.1927,0.2005,0.2004,0.2003,0.2002,0.2001,0,0.1255,0.1336,0.1387,0.1413,0.1501,0.1547,0.1599,0.168,0.1726,0.1822,0.187,0.1939,0.1991,0.2021,0.2055,0.2036,0.2117,0.2087,0.2004,0.1997,0.2049,0.2041,0.213,0.213,0.213,0.213,0.2129,0,0.1239,0.1282,0.1382,0.1408,0.1471,0.1541,0.1613,0.1675,0.1767,0.1819,0.19,0.1951,0.2022,0.2074,0.2083,0.2075,0.2145,0.2019,0.2008,0.207,0.2063,0.2056,0.2046,0.2132,0.2131,0.2131,0.2131,0,0.1186,0.1254,0.1315,0.142,0.1456,0.1502,0.1614,0.1661,0.1763,0.1836,0.1874,0.1984,0.2051,0.2103,0.2159,0.2105,0.2108,0.2087,0.2166,0.2157,0.1961,0.1954,0.1991,0.1988,0.1985,0.1983,0.1981,0,0.1162,0.1191,0.1307,0.1346,0.14,0.1481,0.1533,0.1644,0.1691,0.1838,0.1861,0.1975,0.2032,0.2026,0.2092,0.2105,0.208,0.2067,0.1994,0.1962,0.1949,0.1945,0.1942,0.1977,0.1976,0.1975,0.1975,0,0.1111,0.1166,0.1216,0.1295,0.1361,0.142,0.1506,0.1526,0.1649,0.1757,0.1803,0.1843,0.1916,0.1954,0.1987,0.1989,0.2064,0.2039,0.2043,0.1974,0.1946,0.1934,0.1933,0.1966,0.1967,0.1968,0.1968,0,0.1075,0.1095,0.1171,0.123,0.1304,0.1339,0.1393,0.1449,0.1505,0.1655,0.1669,0.1788,0.1892,0.1897,0.1926,0.1925,0.1888,0.1815,0.183,0.1842,0.1765,0.1705,0.1649,0,0,0,0,0,0.1029,0.1048,0.11,0.1156,0.1225,0.1272,0.1364,0.1419,0.153,0.152,0.1587,0.1644,0.1694,0.1761,0.1729,0.1872,0.1902,0.1828,0.1827,0.1915,0.1925,0.185,0,0,0,0,0,0,0.1,0.1047,0.107,0.1082,0.1107,0.1172,0.1227,0.1308,0.1304,0.1422,0.1455,0.1551,0.1623,0.1693,0.1699,0.172,0.1687,0.1904,0.1901,0.1909,0.1918,0.1927,0.1853,0,0,0,0,0]},{"header":{"parameterUnit":"m.s-1","parameterCategory":2,"la1":30.2991,"la2":30.254,"lo1":-89.0895,"lo2":-89.0444,"dy":0.0017,"dx":0.0017,"nx":28,"ny":28,"refTime":"2023-11-02T09:00:00:Z","depth":"4","parameterNumber":3,"parameterNumberName":"V-component_of_CURRENTS"},"data":[0,0,0,0,0,0,0,0,0,0,0,0,0,0,0,0,0,0,0,0,0,0,0,0,0,0,0,0,0,0,0,0,0,0,0,0,0,0,0,0,0,0,0,0,0,0,0,0,0,0,0,0,0,0,0,0,0,0,0.0022,0.0021,0,-0.0012,-0.0013,-0.0013,-0.0041,-0.0041,-0.0041,-0.0042,-0.0087,-0.0088,-0.0088,0,0,0,0,0,0,0,0,0,0,0,0,0,0.0042,0.0042,0.0022,0.0021,0.0021,-0.0012,-0.0013,-0.0013,-0.0041,-0.0041,-0.0042,-0.0042,-0.0086,-0.0087,-0.0089,0,0,0,0,0,0,0,0,0,0,0,0,0,0.0023,0.0042,0.0022,0.0003,0.0001,-0.0012,-0.0013,-0.0013,-0.0041,-0.0041,-0.0042,-0.0042,-0.0086,-0.0087,-0.0089,-0.0089,0,0,-0.0093,-0.0094,0,0,0,0,0,0,0,0,0.0024,0.0022,0.0006,0.0004,0.0002,-0.0023,-0.0022,-0.0039,-0.0041,-0.0025,-0.0042,-0.0042,-0.0066,-0.0069,-0.0074,-0.0091,-0.0093,-0.0093,-0.0094,-0.0095,-0.0095,0,0,0,0,0,0,0,0.0025,0.0023,0.0008,0.0006,0.0003,-0.0011,-0.0014,-0.0026,-0.0043,-0.0026,-0.0028,-0.0032,-0.0067,-0.0073,-0.0076,-0.0094,-0.0093,-0.0094,-0.0095,-0.0096,-0.0117,-0.0117,0,0,0,0,0,0,0.0031,0.0025,0.0009,0.0007,0.0012,-0.0011,-0.0014,-0.0014,-0.0043,-0.0047,-0.0031,-0.0033,-0.007,-0.0074,-0.0077,-0.0082,-0.0095,-0.0096,-0.0097,-0.0117,-0.0117,-0.0117,0,0,0,0,0,0,0.0032,0.0031,0.001,0.0015,0.0011,-0.001,-0.0011,-0.0015,-0.0024,-0.0046,-0.0051,-0.0037,-0.0071,-0.0075,-0.0087,-0.0084,-0.0096,-0.0098,-0.0118,-0.0117,-0.0117,-0.0089,0,0,0,0,0,0,0.0033,0.0031,0.0033,0.0016,0.0011,0.0006,-0.001,-0.0015,-0.0025,-0.0027,-0.0052,-0.0057,-0.0072,-0.0085,-0.0088,-0.0086,-0.0099,-0.0118,-0.0117,-0.0117,-0.009,-0.0088,-0.0086,0,0,0,0,0,0.0034,0.0041,0.0034,0.0032,0.0015,0.0006,0.0003,-0.0015,-0.0025,-0.0025,-0.0042,-0.0056,-0.0084,-0.0086,-0.009,-0.0088,-0.0118,-0.0118,-0.0117,-0.0092,-0.0088,-0.0086,0,0,0,0,0,0,0.0052,0.0038,0.003,0.0032,0.0021,0.0001,0.0,-0.0013,-0.0027,-0.003,-0.0053,-0.0059,-0.0068,-0.008,-0.0081,-0.0092,-0.0103,-0.0103,-0.0082,-0.008,-0.0077,-0.0073,-0.01,0,0,0,0,0,0.0057,0.0058,0.0041,0.0043,0.0039,0.0019,0.0013,0.0001,-0.0014,-0.0021,-0.0039,-0.0056,-0.0068,-0.0075,-0.0088,-0.0094,-0.0116,-0.0095,-0.0092,-0.009,-0.009,-0.0121,-0.0122,-0.0115,-0.0115,-0.0115,0,0,0.0065,0.0057,0.0058,0.0047,0.0037,0.0037,0.0015,0.0008,0.0007,-0.0023,-0.003,-0.0049,-0.0068,-0.0074,-0.0079,-0.0084,-0.0103,-0.009,-0.0088,-0.0088,-0.0121,-0.0121,-0.0122,-0.0114,-0.0114,-0.0114,0,0,0.0083,0.0075,0.0081,0.0073,0.006,0.0049,0.0048,0.0028,0.0019,0.0009,-0.0011,-0.0029,-0.0047,-0.0061,-0.007,-0.0062,-0.0091,-0.0064,-0.0049,-0.008,-0.0081,-0.0082,-0.011,-0.0114,-0.0062,-0.0062,-0.0062,0,0.0093,0.0098,0.0081,0.0085,0.0084,0.0057,0.0065,0.0053,0.0031,0.0026,0.0011,-0.0023,-0.0041,-0.005,-0.0049,-0.0057,-0.0079,-0.0059,-0.0077,-0.0079,-0.0081,-0.0109,-0.0114,-0.0061,-0.0061,-0.0061,-0.0061,0,0.0114,0.0118,0.0121,0.0118,0.0115,0.0117,0.01,0.0092,0.0075,0.0059,0.0041,0.001,-0.001,-0.0019,-0.0033,-0.0049,-0.0062,-0.0072,-0.0085,-0.008,-0.011,-0.0115,-0.0059,-0.0059,-0.006,-0.006,0,0,0.0136,0.0137,0.0138,0.0145,0.0133,0.0135,0.0134,0.0126,0.0125,0.0094,0.0088,0.0056,0.0031,0.002,-0.0004,-0.0033,-0.0066,-0.0055,-0.0058,-0.0084,-0.0135,-0.0131,-0.0137,-0.0081,-0.0082,-0.0083,-0.0151,0,0.0157,0.0175,0.0169,0.0189,0.0197,0.0179,0.0182,0.017,0.0151,0.0138,0.0098,0.0083,0.005,0.0039,0.0004,-0.0046,-0.0079,-0.0047,-0.0135,-0.0138,-0.0136,-0.0142,-0.0085,-0.0155,-0.0156,-0.0157,-0.0158,0,0.018,0.0189,0.0214,0.0226,0.0229,0.0236,0.0236,0.0234,0.0208,0.0192,0.0162,0.013,0.0089,0.0057,-0.0034,-0.0012,-0.0071,-0.0116,-0.012,-0.013,-0.0144,-0.0162,-0.0168,-0.0167,-0.0166,-0.0166,-0.0165,0,0.0206,0.0223,0.0246,0.0249,0.0257,0.0265,0.0266,0.0249,0.0258,0.0224,0.0222,0.0162,0.0138,0.0054,-0.0038,-0.0038,-0.0142,-0.0154,-0.0209,-0.0209,-0.0205,-0.0203,-0.0225,-0.0225,-0.0225,-0.0225,-0.0225,0,0.023,0.0249,0.0261,0.0272,0.0302,0.0294,0.0315,0.0305,0.03,0.0315,0.0253,0.0246,0.0135,0.0066,-0.0027,-0.0131,-0.0136,-0.0209,-0.0227,-0.0191,-0.0187,-0.0209,-0.0206,-0.0227,-0.0227,-0.0226,-0.0226,0,0.0252,0.026,0.029,0.0306,0.0316,0.0335,0.0358,0.0372,0.0358,0.0374,0.0369,0.031,0.0215,0.0099,-0.0036,-0.0107,-0.0214,-0.0253,-0.0203,-0.0217,-0.0265,-0.026,-0.032,-0.032,-0.0321,-0.0321,-0.0321,0,0.0264,0.0283,0.0317,0.034,0.0349,0.0375,0.0396,0.0399,0.042,0.0414,0.0429,0.0351,0.0293,0.0111,-0.0022,-0.0203,-0.0229,-0.0284,-0.0281,-0.0264,-0.0276,-0.027,-0.0265,-0.0322,-0.0322,-0.0322,-0.0322,0,0.0289,0.0302,0.0326,0.0371,0.0403,0.044,0.047,0.0493,0.0501,0.0497,0.0481,0.0385,0.0278,0.0125,-0.0017,-0.0146,-0.0247,-0.0288,-0.0289,-0.0286,-0.0267,-0.0277,-0.0271,-0.0323,-0.0323,-0.0323,-0.0323,0,0.0307,0.0328,0.0361,0.04,0.0446,0.0489,0.0501,0.0525,0.0544,0.0542,0.0535,0.0413,0.0345,0.0153,0.0024,-0.0105,-0.014,-0.0179,-0.0185,-0.0185,-0.0129,-0.0083,-0.01,0,0,0,0,0,0.0321,0.0345,0.0386,0.043,0.0476,0.0503,0.0548,0.0557,0.0569,0.0571,0.0557,0.0457,0.0269,0.0184,0.0057,0.0,-0.0174,-0.0154,-0.0224,-0.0331,-0.0329,-0.0285,0,0,0,0,0,0,0.0331,0.037,0.0387,0.0448,0.0481,0.0535,0.0564,0.0575,0.0573,0.0568,0.047,0.0428,0.024,0.0344,0.0056,0.0016,-0.0045,-0.0243,-0.0245,-0.0331,-0.033,-0.0329,-0.0283,0,0,0,0,0]}]]